Regional Weather Roundup
Issued by NWS

Home | Current Version | Previous Version | Text Only | Print | Product List | Glossary Off
Versions: 1 2 3 4 5 6 7 8 9 10 11 12 13 14 15 16 17 18 19 20 21 22 23 24 25 26 27 28 29 30 31 32 33 34 35 36 37 38 39 40 41 42 43 44 45 46 47 48 49 50

000
ASUS43 KMKX 222321
RWRWI

WISCONSIN REGIONAL WEATHER ROUNDUP
NATIONAL WEATHER SERVICE MILWAUKEE/SULLIVAN WI
600 PM CDT SUN OCT 22 2017

NOTE: "FAIR" INDICATES FEW OR NO CLOUDS BELOW 12,000 FEET WITH NO
SIGNIFICANT WEATHER AND/OR OBSTRUCTIONS TO VISIBILITY.

WIZ001-002-006>008-014>016-023>028-230000-
NORTHWEST WISCONSIN

CITY           SKY/WX    TMP DP  RH WIND       PRES   REMARKS
SUPERIOR ARPT  CLEAR     58  31  36 SW8       29.87S
ASHLAND        CLEAR     51  35  54 SW8       29.89S
HAYWARD        CLEAR     56  32  40 SW6       29.92R
SIREN          CLEAR     57  29  35 SW6       29.91S
CUMBERLAND     CLEAR     52  32  46 SW6       29.93S
RICE LAKE      CLEAR     56  32  40 S5        29.95R
CHETEK         CLEAR     55  35  47 CALM      29.95R
LADYSMITH      PTCLDY    53  37  55 SW3       29.97R
EAU CLAIRE     CLOUDY    56  34  43 SW3       29.95S
MENOMONIE      CLEAR     56  35  44 SW3       29.96S
NEW RICHMOND   CLEAR     56  29  35 SW3       29.95R
OSCEOLA        CLEAR     57  31  37 SW5       29.96S
$$

WIZ003>005-009-010-017-018-230000-
NORTH CENTRAL WISCONSIN

CITY           SKY/WX    TMP DP  RH WIND       PRES   REMARKS
MANITOWISH WTR CLOUDY    46  42  86 S5        29.93S
ARBOR VITAE    CLOUDY    48  42  81 SW3       29.94S
WOODRUFF       CLOUDY    48  42  81 SW3       29.94S
RHINELANDER    CLOUDY    48  42  80 SW5       29.97R
EAGLE RIVER    NOT AVBL
LAND O LAKES   CLOUDY    47  41  79 CALM      29.95S
PHILLIPS       CLEAR     49  40  71 SW5       29.94R
TOMAHAWK       CLOUDY    45  41  86 CALM      29.97R
MEDFORD        CLOUDY    48  41  77 S6        29.98R
MERRILL        CLOUDY    49  42  79 SW3       29.99R
$$

WIZ029-030-035-036-043>047-230000-
CENTRAL WISCONSIN

CITY           SKY/WX    TMP DP  RH WIND       PRES   REMARKS
WAUSAU         CLOUDY    49  43  80 SW5       29.99R
MOSINEE        MOCLDY    46  45  93 S7        30.01R
MARSHFIELD     CLOUDY    48  42  80 S6        29.99R
STEVENS POINT  CLOUDY    47  47 100 SW5       30.01R
WAUPACA        CLOUDY    52  50  93 S3        30.01S
WAUTOMA        CLOUDY   N/A N/A N/A SW5       30.03R
WISC RAPIDS    CLOUDY    50  46  86 SW3       30.02R
CAMP DOUGLAS   NOT AVBL
$$

WIZ011>013-019>022-031-037>040-048>050-230000-
NORTHEAST WISCONSIN

CITY           SKY/WX    TMP DP  RH WIND       PRES   REMARKS
ANTIGO         CLOUDY    47  46  96 SW6       30.00R
SHAWANO        CLOUDY    51  49  91 CALM      30.00R
OCONTO         CLOUDY    49  48  95 W3        30.00R
STURGEON BAY   RAIN      51  50  96 SW5       30.00S
GREEN BAY      LGT RAIN  50  50 100 W6        30.01R
MANITOWOC      LGT RAIN  51  50  96 SW3       30.03R
APPLETON       CLOUDY    48  48 100 CALM      30.00R
CLINTONVILLE   CLOUDY    50  48  93 SW5       30.02R
OSHKOSH        CLOUDY    50  48  93 W3        30.01R
$$

WIZ032>034-041-042-053>061-230000-
SOUTHWEST WISCONSIN

CITY           SKY/WX    TMP DP  RH WIND       PRES   REMARKS
LA CROSSE      CLOUDY    55  45  68 S7        30.00F
SPARTA         CLOUDY    50  46  85 CALM      30.02F
VIROQUA        CLOUDY    50  47  88 S5        30.03R
BOSCOBEL       CLOUDY    53  47  79 CALM      30.05R
PRAIRIE DU CHI CLOUDY    54  44  70 CALM      30.05R
PLATTEVILLE    CLOUDY    52  50  94 S3        30.06R
$$

WIZ056-057-062-063-064-067-068-230000-
SOUTH CENTRAL WISCONSIN

CITY           SKY/WX    TMP DP  RH WIND       PRES   REMARKS
REEDSBURG      CLOUDY    50  50 100 CALM      30.03S
BARABOO/DELLS  CLOUDY    49  47  92 SW5       30.04R
LONE ROCK      CLOUDY    52  49  89 SW3       30.05R
MINERAL POINT  CLOUDY    52  52 100 CALM      30.05R
MADISON        LGT RAIN  50  48  93 CALM      30.04R
MIDDLETON      CLOUDY    51  47  87 CALM      30.05R
WATERTOWN      DRIZZLE   50  50 100 W5        30.03R
MONROE         DRIZZLE   50  45  81 NW5       30.05S
JANESVILLE     LGT RAIN  52  52 100 NW5       30.05R
$$

WIZ051-052-058>065-066-070>072-230000-
SOUTHEAST WISCONSIN

CITY           SKY/WX    TMP DP  RH WIND       PRES   REMARKS
MILWAUKEE      LGT RAIN  52  50  93 N6        30.03R
WAUKESHA       CLOUDY    48  46  93 NW5       30.04R
MILWAUKEE/TIMM DRIZZLE   52  46  82 CALM      30.04R
RACINE         RAIN      51  50  96 N5        30.05R FOG
BURLINGTON     LGT RAIN  49  49 100 NW3       30.04R
KENOSHA        LGT RAIN  51  49  92 N6        30.03S FOG
FOND DU LAC    LGT RAIN  50  47  89 CALM      30.03R
SHEBOYGAN      LGT RAIN  51  50  96 CALM      30.02R FOG
WEST BEND      RAIN      48  46  93 NW3       30.03S
JUNEAU         DRIZZLE   48  47  96 CALM      30.04R
$$

LSZ147-162-230000-
LAKE SUPERIOR

STATION/POSITION TIME  TEMP    WIND        PRES    WAVE
                       AIR SEA DIR/SP/G            HT/PER
                 (UTC) (F)     (DEG/KT/KT) (MB)    (FT/S)
W MID LAKE BUOY  2250   53 52              1011.2R   4/ 6
DEVILS ISLAND    2300   57     220/ 14/ 16 1011.5R
PORT WING        2040          240/ 12/ 15 1011.5
SAXON HARBOR     2230   58     210/  3/  8 1011.9S
$$

LMZ867-665-643>646-230000-
LAKE MICHIGAN

STATION/POSITION TIME  TEMP    WIND        PRES    WAVE
                       AIR SEA DIR/SP/G            HT/PER
                 (UTC) (F)     (DEG/KT/KT) (MB)    (FT/S)
S GREEN BAY BUOY 2300   51 58  260/  6/  6 1015.3
N MID LAKE BUOY  2250   52 57  280/  6/  8 1016.0R   4/ 7
NORTHPORT PIER   2240   52        CALM     1014.9S
KEWAUNEE LAKESHO 2254   51     180/  4/  4 1015.2R
SHEBOYGAN LAKESH 2300   51      CALM  /  1 1016.6R
PORT WASHINGTON  2230   52     290/  4/  6 1017.9R
MILWAUKEE LAKESH 2300   51     330/  6/  7   N/A
S MID LAKE BUOY  2250   54 59  360/ 19/ 23 1015.9R   5/ 6
KENOSHA   LAKESH 2300   51      10/ 10/ 13 1016.9
$$

TC  - TEMPERATURE IN CELSIUS
VSB - VISIBILITY IN STATUTE MILES
WCI - WIND CHILL INDEX
HX  - HEAT INDEX




USA.gov is the U.S. government's official web portal to all federal, state and local government web resources and services.